Regional Weather Roundup
Issued by NWS

Home | Current Version | Previous Version | Graphics & Text | Print | Product List | Glossary On
Versions: 1 2 3 4 5 6 7 8 9 10 11 12 13 14 15 16 17 18 19 20 21 22 23 24 25 26 27 28 29 30 31 32 33 34 35 36 37 38 39 40 41 42 43 44 45 46 47 48 49 50
000
ASUS43 KFSD 172102
RWRSD

WEATHER ROUNDUP FOR SOUTH DAKOTA
NATIONAL WEATHER SERVICE SIOUX FALLS SD
400 PM CDT WED SEP 17 2014

NOTE: "FAIR" INDICATES FEW OR NO CLOUDS BELOW 12,000 FEET WITH NO
SIGNIFICANT WEATHER AND/OR OBSTRUCTIONS TO VISIBILITY.


SDZ001>005-009-010-012>017-172200-
NORTHWEST AND NORTH CENTRAL SOUTH DAKOTA

CITY           SKY/WX    TMP DP  RH WIND       PRES   REMARKS
FAITH            N/A     74  51  44 E12       29.93F
MOBRIDGE       PTSUNNY   76  48  37 E8        29.92S
$$

SDZ012>016-024>037-041>051-057-063-072>074-172200-
SOUTHWEST AND SOUTH CENTRAL SOUTH DAKOTA

CITY           SKY/WX    TMP DP  RH WIND       PRES   REMARKS
RAPID CTY ARPT MOSUNNY   77  49  37 SE12      29.94F
PIERRE         MOSUNNY   80  52  37 SE14G20   29.90S
CUSTER         CLOUDY    75  38  26 VRB7      30.06S
ELLSWORTH AFB  SUNNY     79  47  32 SE10      29.93F
PHILIP         MOSUNNY   79  53  40 E12       29.90F
PINE RIDGE     SUNNY     84  48  28 E7        29.93F
WINNER         FAIR      80  52  37 E10G20    29.92F
$$

SDZ004>011-016>023-039-040-172200-
NORTHEAST SOUTH DAKOTA

CITY           SKY/WX    TMP DP  RH WIND       PRES   REMARKS
ABERDEEN       SUNNY     72  49  44 NE10      29.95S
WATERTOWN      SUNNY     73  51  46 VRB3      29.95S
SISSETON         N/A     74  52  46 MISG      29.94S
$$

SDZ017-020-022-023-036>040-048>070-172200-
SOUTHEAST SOUTH DAKOTA

CITY           SKY/WX    TMP DP  RH WIND       PRES   REMARKS
SIOUX FALLS    PTSUNNY   79  56  45 VRB7      29.92S
HURON          MOSUNNY   78  47  33 N9        29.92S
CHAMBERLAIN    SUNNY     76  55  48 E7        29.92F
MITCHELL       MOSUNNY   79  56  45 VRB6      29.92F
YANKTON        SUNNY     79  55  44 N6        29.90S
$$

ABBREVIATIONS USED IN REMARKS
   TC - TEMPERATURE IN CELSIUS
  WCI - WIND CHILL INDEX
   HX - HEAT INDEX
  VSB - VISIBILITY



USA.gov is the U.S. government's official web portal to all federal, state and local government web resources and services.